#timestamp,LO_Frequency,Hit,StdDev 
1677729615.8,286046998.1,N
1677729635.6,286046998.8,N
1677729655.5,286046998.9,N
1677729675.3,286047001.2,N
1677729695.1,286046999.1,N
1677729715.9,286046999.3,N
1677729735.7,286046996.9,Y
1677729755.6,286046998.8,P
1677729775.4,286046999.0,P
1677729795.2,286046999.6,N
1677729815.1,286046999.1,Y
1677729816.0,286046999.1,P
1677729835.8,286046998.1,P
1677729855.7,286047000.9,N
1677729875.5,286047000.9,N
1677729895.3,286047000.0,N
1677729915.2,286047000.9,N
1677729935.9,286047000.8,N
1677729955.7,286046999.7,N
1677729975.6,286046998.1,N
1677729995.4,286046998.3,N
1677730015.2,286047000.5,N
1677730035.1,286046998.9,N
1677730036.0,286046998.9,N
1677730055.8,286046997.0,N
1677730075.7,286046997.3,N
1677730095.5,286046997.1,N
1677730115.4,286046999.6,N
1677730135.2,286046996.9,N
1677730155.0,286046997.2,N
1677730155.9,286046997.2,N
1677730175.8,286046997.8,N
1677730195.6,286046994.9,Y
1677730215.5,286046999.0,P
1677730235.3,286046998.2,P
1677730255.2,286046998.2,P
1677730275.9,286046998.2,Y
1677730295.7,286046999.9,P
1677730315.6,286047001.0,N
1677730335.4,286047000.1,N
1677730355.3,286046998.2,N
1677730375.1,286046998.1,N
1677730376.0,286046998.1,N
1677730395.8,286046999.0,N
1677730415.7,286046998.9,N
1677730435.5,286046998.4,N
1677730455.3,286047001.1,N
1677730475.2,286046998.2,N
1677730495.0,286046998.2,N
1677730495.9,286046998.2,N
1677730515.8,286046998.7,N
1677730535.6,286047000.8,N
1677730555.4,286046998.1,N
1677730575.3,286047000.7,N
1677730595.1,286046998.1,N
1677730615.8,286046999.6,N
1677730635.7,286046997.2,N
1677730655.5,286046998.0,N
1677730675.4,286046997.8,N
1677730695.2,286046996.7,N
1677730715.0,286046997.8,N
1677730715.9,286046997.8,N
1677730735.8,286046998.0,N
1677730755.6,286046997.8,N
1677730775.4,286046995.0,Y
1677730795.3,286046997.1,P
1677730815.1,286046995.3,P
1677730835.9,286046995.9,N
1677730855.7,286046995.1,Y
1677730875.5,286046998.3,P
1677730895.4,286046998.3,N
1677730915.2,286046999.6,N
1677730935.1,286046999.2,N
1677730936.0,286046999.2,N
1677730955.8,286046999.4,N
1677730975.6,286046997.2,Y
1677730995.5,286046998.4,P
1677731015.3,286046998.4,P
1677731035.1,286046998.7,P
1677731055.9,286046998.8,Y
1677731075.7,286047000.2,P
1677731095.6,286047002.0,N
1677731115.4,286047001.9,N
1677731135.2,286047000.0,N
1677731155.1,286046998.1,N
1677731156.0,286046998.1,N
1677731175.8,286046998.8,N
1677731195.6,286046999.0,N
1677731215.5,286046999.4,N
1677731235.3,286046998.8,N
1677731255.2,286046999.5,N
1677731275.9,286046999.4,N
1677731295.7,286046997.2,N
1677731315.6,286046999.0,N
1677731335.4,286046997.4,N
1677731355.2,286046997.2,N
1677731375.1,286046996.8,N
1677731376.0,286046996.8,N
1677731395.8,286046998.3,N
1677731415.7,286046996.6,N
1677731435.5,286046996.7,N
1677731455.3,286046999.2,N
1677731475.2,286046999.2,N
1677731495.0,286046999.4,N
1677731495.9,286046999.4,N
1677731515.7,286046998.6,N
1677731535.6,286046998.7,N
1677731555.4,286046998.8,N
1677731575.3,286046996.9,N
1677731595.1,286046996.5,N
1677731596.0,286046996.5,N
1677731615.8,286046999.6,N
1677731635.7,286046999.4,N
1677731655.5,286046996.9,N
1677731675.3,286046997.5,N
1677731695.2,286046995.8,Y
1677731715.0,286046997.1,P
1677731715.9,286046997.1,P
1677731735.8,286046996.5,P
1677731755.6,286046999.2,N
1677731775.4,286046997.1,Y
1677731795.3,286046998.2,P
1677731815.1,286047000.9,N
1677731835.9,286047002.6,N
1677731855.7,286046999.8,N
1677731875.5,286047002.4,N
1677731895.4,286047002.3,N
1677731915.2,286047002.7,N
1677731935.0,286047000.0,N
1677731935.9,286047000.0,N
1677731955.8,286047000.3,N
1677731975.6,286046998.8,N
1677731995.4,286047001.1,N
1677732015.3,286046999.1,N
1677732035.1,286046996.6,N
1677732055.9,286046996.8,N
1677732075.7,286046996.7,N
1677732095.5,286046997.1,N
1677732115.4,286046999.0,N
1677732135.2,286046999.2,N
1677732155.1,286046998.7,N
1677732156.0,286046998.7,N
1677732175.8,286046998.9,N
1677732195.6,286046997.1,N
1677732215.5,286046996.6,N
1677732235.3,286046996.6,N
1677732255.1,286046996.9,N
1677732275.9,286046997.4,N
1677732295.7,286046997.4,N
1677732315.6,286046997.3,N
1677732335.4,286046997.8,N
1677732355.2,286046997.6,N
1677732375.1,286046997.8,N
1677732376.0,286046997.8,N
1677732395.8,286046995.0,N
1677732415.6,286046997.2,N
1677732435.5,286046997.2,N
1677732455.3,286046996.7,N
1677732475.2,286046995.3,Y
1677732495.9,286046997.2,P
1677732515.7,286046999.1,N
1677732535.6,286046996.6,P
1677732555.4,286046997.4,N
1677732575.2,286046996.8,Y
1677732595.1,286046998.5,P
1677732596.0,286046998.5,P
1677732615.8,286046998.5,P
1677732635.7,286046998.7,Y
1677732655.5,286047000.1,P
1677732675.3,286047000.1,N
1677732695.2,286047000.1,N
1677732715.0,286047000.1,N
1677732715.9,286047000.1,N
1677732735.8,286047000.4,N
1677732755.6,286047002.4,Y
1677732775.4,286047002.3,P
1677732795.3,286047001.6,N
1677732815.1,286047002.1,N
1677732835.8,286047001.6,N
1677732855.7,286047002.3,N
1677732875.5,286047001.8,N
1677732895.4,286047002.3,N
1677732915.2,286047003.9,Y
1677732935.0,286047000.1,P
1677732935.9,286047000.1,N
1677732955.8,286047001.1,N
1677732975.6,286047001.1,N
1677732995.4,286046998.7,N
1677733015.3,286046998.2,N
1677733035.1,286046998.4,N
1677733055.9,286046998.4,N
1677733075.7,286046998.2,N
1677733095.5,286046998.3,N
1677733115.4,286047001.2,N
1677733135.2,286047000.9,N
1677733155.0,286047001.2,N
1677733155.9,286047001.2,N
1677733175.8,286047000.0,N
1677733195.6,286046998.1,N
